Location: LDNL
(36.4545°S, 141.6685°E)
Time: 04:43:03
(UTC+11:00)

A-11 Canister half - Pass Details

Date: 10 August 2022
Orbit: 1524 x 1684 km, 47.3° (Epoch: 05 October)

Event Time Altitude Azimuth Distance (km) Brightness Sun altitude
Rises 19:55:22 0° 274° (W) 4,688 13.0 -24.4°
Reaches altitude 10° 19:58:34 10° 269° (W) 3,702 12.1 -25.0°
Maximum altitude 20:07:32 49° 195° (SSW) 1,910 9.5 -26.9°
Enters shadow 20:11:42 32° 141° (SE) 2,422 9.7 -27.7°
Drops below altitude 10° 20:16:38 10° 121° (ESE) 3,748 - -28.7°
Sets 20:19:55 0° 115° (ESE) 4,749 - -29.3°
